Location: Bayshore Village Mobile Home Park
(26.6945°N, 81.8642°W)
Time: 00:56:56
(UTC+00:00)

Cosmos 1271 Rocket - Pass Details

Date: 17 June 2021
Orbit: 498 x 543 km, 81.2° (Epoch: 05 August)

Event Time Altitude Azimuth Distance (km) Brightness Sun altitude
Rises 09:20:01 0° 343° (NNW) 2,588 6.5 -14.9°
Reaches altitude 10° 09:22:13 10° 336° (NNW) 1,704 5.5 -14.5°
Maximum altitude 09:25:43 40° 266° (W) 749 3.1 -13.9°
Enters shadow 09:28:02 19° 205° (SSW) 1,257 4.1 -13.5°
